TimeCDT,TemperatureF,Dew PointF,Humidity,Sea Level PressureIn,VisibilityMPH,Wind Direction,Wind SpeedMPH,Gust SpeedMPH,PrecipitationIn,Events,Conditions,WindDirDegrees,DateUTC
12:15 AM,76.8,69.6,78,29.89,10.0,SE,18.4,25.3,N/A,,Overcast,140,2013-04-18 05:15:00
12:35 AM,76.6,69.3,78,29.90,10.0,SE,19.6,25.3,N/A,,Overcast,140,2013-04-18 05:35:00
12:55 AM,76.3,69.4,79,29.89,10.0,SE,12.7,24.2,N/A,,Overcast,140,2013-04-18 05:55:00
1:15 AM,76.3,69.3,79,29.89,10.0,SE,13.8,24.2,N/A,,Overcast,140,2013-04-18 06:15:00
1:35 AM,76.1,69.1,79,29.88,10.0,SE,12.7,24.2,N/A,,Overcast,130,2013-04-18 06:35:00
1:55 AM,76.1,69.1,79,29.87,10.0,SE,12.7,20.7,N/A,,Overcast,130,2013-04-18 06:55:00
2:15 AM,76.1,69.1,79,29.87,10.0,SE,17.3,25.3,N/A,,Overcast,130,2013-04-18 07:15:00
2:35 AM,76.1,69.1,79,29.87,10.0,SE,12.7,24.2,N/A,,Overcast,140,2013-04-18 07:35:00
2:55 AM,76.1,69.1,79,29.86,10.0,SE,12.7,24.2,N/A,,Overcast,140,2013-04-18 07:55:00
3:15 AM,76.1,68.9,78,29.85,10.0,SE,13.8,18.4,N/A,,Overcast,130,2013-04-18 08:15:00
3:35 AM,75.6,68.9,80,29.85,10.0,SE,13.8,20.7,N/A,,Overcast,130,2013-04-18 08:35:00
3:55 AM,75.7,68.9,79,29.85,10.0,SE,11.5,23.0,N/A,,Overcast,140,2013-04-18 08:55:00
4:15 AM,76.1,69.1,79,29.84,10.0,SSE,12.7,21.9,N/A,,Overcast,150,2013-04-18 09:15:00
4:35 AM,75.7,69.1,80,29.83,10.0,SE,15.0,21.9,N/A,,Overcast,130,2013-04-18 09:35:00
4:55 AM,76.1,69.1,79,29.82,10.0,SE,16.1,24.2,N/A,,Overcast,140,2013-04-18 09:55:00
5:15 AM,76.1,68.9,78,29.81,10.0,SE,13.8,19.6,N/A,,Overcast,140,2013-04-18 10:15:00
5:35 AM,75.9,68.9,79,29.81,10.0,SE,15.0,23.0,N/A,,Overcast,140,2013-04-18 10:35:00
5:55 AM,76.1,68.9,78,29.80,10.0,SE,12.7,21.9,N/A,,Overcast,130,2013-04-18 10:55:00
6:15 AM,76.1,69.1,79,29.80,10.0,SSE,16.1,21.9,N/A,,Overcast,150,2013-04-18 11:15:00
6:35 AM,76.1,68.9,78,29.81,10.0,SSE,16.1,23.0,N/A,,Overcast,150,2013-04-18 11:35:00
6:55 AM,76.1,68.9,78,29.81,10.0,SE,15.0,23.0,N/A,,Overcast,140,2013-04-18 11:55:00
7:15 AM,76.3,68.9,78,29.82,10.0,SE,17.3,24.2,N/A,,Overcast,140,2013-04-18 12:15:00
7:35 AM,76.5,68.9,77,29.82,10.0,SE,17.3,27.6,N/A,,Overcast,140,2013-04-18 12:35:00
7:55 AM,77.0,68.9,76,29.83,10.0,SSE,18.4,26.5,N/A,,Overcast,150,2013-04-18 12:55:00
8:15 AM,76.6,69.1,77,29.84,10.0,SSE,15.0,23.0,N/A,,Overcast,150,2013-04-18 13:15:00
8:35 AM,77.0,69.1,76,29.83,10.0,SSE,19.6,26.5,N/A,,Overcast,150,2013-04-18 13:35:00
8:55 AM,77.4,69.1,76,29.84,10.0,SSE,17.3,26.5,N/A,,Overcast,150,2013-04-18 13:55:00
9:15 AM,77.9,68.9,74,29.84,10.0,SSE,13.8,25.3,N/A,,Overcast,150,2013-04-18 14:15:00
9:35 AM,78.3,69.3,74,29.84,10.0,SSE,21.9,29.9,N/A,,Overcast,160,2013-04-18 14:35:00
9:55 AM,78.1,69.4,75,29.84,10.0,SSE,17.3,28.8,N/A,,Overcast,150,2013-04-18 14:55:00
10:15 AM,79.3,69.8,72,29.84,10.0,SSE,18.4,23.0,N/A,,Overcast,160,2013-04-18 15:15:00
10:35 AM,80.6,68.9,67,29.84,10.0,SSE,23.0,29.9,N/A,,Overcast,160,2013-04-18 15:35:00
10:55 AM,80.8,69.1,67,29.84,10.0,SSE,20.7,29.9,N/A,,Overcast,160,2013-04-18 15:55:00
11:15 AM,81.1,69.4,67,29.82,10.0,SSE,24.2,31.1,N/A,,Overcast,160,2013-04-18 16:15:00
11:35 AM,81.9,68.5,64,29.82,10.0,SSE,25.3,32.2,N/A,,Overcast,160,2013-04-18 16:35:00
11:55 AM,82.0,68.9,64,29.82,10.0,SSE,21.9,31.1,N/A,,Overcast,150,2013-04-18 16:55:00
12:15 PM,82.6,69.1,64,29.81,10.0,SSE,23.0,29.9,N/A,,Overcast,160,2013-04-18 17:15:00
12:35 PM,81.9,68.2,63,29.81,10.0,SSE,21.9,38.0,N/A,,Overcast,160,2013-04-18 17:35:00
12:55 PM,82.4,68.4,62,29.80,10.0,SSE,21.9,34.5,N/A,,Overcast,150,2013-04-18 17:55:00
1:15 PM,82.6,68.2,62,29.80,10.0,SSE,23.0,29.9,N/A,,Overcast,160,2013-04-18 18:15:00
1:35 PM,82.6,68.4,62,29.79,10.0,SSE,24.2,31.1,N/A,,Overcast,160,2013-04-18 18:35:00
1:55 PM,82.2,68.4,63,29.80,10.0,SSE,21.9,33.4,N/A,,Overcast,160,2013-04-18 18:55:00
2:15 PM,81.9,67.8,62,29.80,10.0,South,23.0,35.7,N/A,,Overcast,170,2013-04-18 19:15:00
2:35 PM,81.1,68.0,64,29.80,10.0,South,21.9,31.1,N/A,,Overcast,170,2013-04-18 19:35:00
2:55 PM,80.2,68.2,67,29.80,10.0,SSE,19.6,29.9,N/A,,Overcast,160,2013-04-18 19:55:00
3:15 PM,80.2,68.2,67,29.80,10.0,SSE,23.0,29.9,N/A,,Overcast,150,2013-04-18 20:15:00
3:35 PM,79.7,68.5,69,29.79,10.0,South,18.4,27.6,N/A,,Overcast,170,2013-04-18 20:35:00
3:55 PM,79.7,68.7,69,29.78,10.0,SSE,18.4,29.9,N/A,,Overcast,160,2013-04-18 20:55:00
4:15 PM,79.7,68.9,69,29.77,10.0,SSE,17.3,25.3,N/A,,Overcast,160,2013-04-18 21:15:00
4:35 PM,79.2,68.9,71,29.77,10.0,SSE,17.3,24.2,N/A,,Overcast,160,2013-04-18 21:35:00
4:55 PM,79.2,69.3,72,29.76,10.0,SSE,16.1,27.6,N/A,,Overcast,160,2013-04-18 21:55:00
5:15 PM,78.6,68.9,72,29.77,10.0,South,16.1,24.2,N/A,,Overcast,170,2013-04-18 22:15:00
5:35 PM,78.3,69.1,73,29.77,10.0,South,12.7,21.9,N/A,,Overcast,170,2013-04-18 22:35:00
5:55 PM,77.9,69.1,74,29.76,10.0,SSE,16.1,21.9,N/A,,Overcast,160,2013-04-18 22:55:00
6:15 PM,77.9,69.1,74,29.76,10.0,South,16.1,19.6,N/A,,Overcast,170,2013-04-18 23:15:00
6:35 PM,77.7,69.4,76,29.77,10.0,South,15.0,21.9,N/A,,Overcast,170,2013-04-18 23:35:00
6:55 PM,77.4,69.8,77,29.77,10.0,South,15.0,19.6,N/A,,Overcast,170,2013-04-18 23:55:00
7:15 PM,77.4,70.0,78,29.78,10.0,South,13.8,19.6,N/A,,Overcast,170,2013-04-19 00:15:00
7:35 PM,77.4,70.0,78,29.78,10.0,South,13.8,20.7,N/A,,Overcast,170,2013-04-19 00:35:00
7:55 PM,77.4,70.0,78,29.79,10.0,South,11.5,18.4,N/A,,Overcast,170,2013-04-19 00:55:00
8:15 PM,77.2,70.0,78,29.79,10.0,South,10.4,16.1,N/A,,Overcast,180,2013-04-19 01:15:00
8:35 PM,77.2,70.2,79,29.80,10.0,South,12.7,18.4,N/A,,Overcast,180,2013-04-19 01:35:00
9:55 PM,61.7,57.2,85,29.90,5.0,NW,13.8,18.4,0.07,Rain,Rain,320,2013-04-19 02:55:00
10:15 PM,59.9,55.6,86,29.91,5.0,North,13.8,17.3,0.01,Rain,Rain,350,2013-04-19 03:15:00
10:35 PM,57.4,53.1,85,29.93,5.0,North,15.0,26.5,0.01,,Light Drizzle,350,2013-04-19 03:35:00
10:55 PM,57.4,53.4,87,29.93,5.0,NNW,15.0,20.7,0.01,,Overcast,340,2013-04-19 03:55:00
11:15 PM,56.5,51.6,84,29.95,7.0,NNW,18.4,24.2,0.01,Rain,Light Rain,340,2013-04-19 04:15:00
11:35 PM,56.3,50.9,82,29.95,10.0,NNW,17.3,24.2,0.02,,Overcast,330,2013-04-19 04:35:00
11:55 PM,56.1,49.8,79,29.95,10.0,NNW,17.3,29.9,0.02,,Overcast,330,2013-04-19 04:55:00